SHIJIAN-23 (SJ-23) (55131 NORAD) Tracking and Keplerian Element Data

This shows tracking and keplerian element data for the satellite.

Feedback or suggestion? Click here.




ElementValue
Catalog55131
NameSHIJIAN-23 (SJ-23)
Epoch Orbit1
Epoch Day9.60258012
Epoch Year2023
RAAN99.3403
Inclination14.312
Eccentricity0.7062668
Argument of Perigee179.8279
Mean Anonmoly187.1656
Mean Motion2.23385302
Decay Rate-1.05E-06
L11 55131U 23002A 23009.60258012 -.00000105 00000+0 00000+0 0 9995
L22 55131 14.3120 99.3403 7062668 179.8279 187.1656 2.23385302 17



Live tracking and technical data element details for SHIJIAN-23 (SJ-23) (NORAD 55131). SHIJIAN-23 (SJ-23) can be tracked NOW for your location showing map with azimuth and elevation plus other details from your city location.







IsCatalogInMostPopularTable: catalog: 55131, numindb: 5
Update: records affected: 1



GetName: 55131 SHIJIAN-23 (SJ-23)

Hit Count: updated at: Tue, 07 Feb 2023 15:56:53 GMT